Location: Quebec
(46.8000°N, 71.2500°W)
Time: 16:00:04
(UTC-04:00)

ISS - Pass Details

Date: 09 October 2017
Orbit: 401 x 408 km, 51.6° (Epoch: 21 October)

Event Time Altitude Azimuth Distance (km) Brightness Sun altitude
Rises 18:57:34 0° 293° (WNW) 2,326 1.4 -9.2°
Reaches altitude 10° 18:59:43 10° 300° (WNW) 1,466 0.0 -9.5°
Maximum altitude 19:02:52 43° 14° (NNE) 586 -3.1 -10.1°
Enters shadow 19:05:13 16° 82° (E) 1,156 -2.2 -10.5°
